FW9403 Weather Reports


time (UTC)temp
C
wind
direction
speed
KPH
gust
KPH
rain 1hr
cm
rain 24hr
cm
rain mn
cm
humidity
%
barometer
mb
20260906012129 26 352 0.0 0.0 0.00 0.61 0.61 99 1013.0
20260906011624 26 351 0.0 0.0 0.00 0.61 0.61 99 1013.1
20260906011125 26 353 0.0 1.6 0.00 0.61 0.61 99 1013.1
20260906010620 26 0 0.0 0.0 0.00 0.61 0.61 99 1013.0
20260906010116 26 352 0.0 0.0 0.00 0.61 0.61 99 1013.1
20260906005615 26 352 0.0 0.0 0.00 0.61 0.61 98 1013.0
20260906005114 26 352 0.0 0.0 0.00 0.61 0.61 98 1013.0
20260906004614 26 352 0.0 0.0 0.00 0.61 0.61 98 1013.1
20260906004109 26 345 1.6 1.6 0.00 0.61 0.61 97 1013.1
20260906003604 26 352 0.0 0.0 0.00 0.61 0.61 97 1012.9
20260906003100 26 345 0.0 0.0 0.00 0.61 0.61 97 1013.0
20260906002555 27 340 1.6 3.2 0.00 0.61 0.61 96 1012.7
20260906002049 27 355 0.0 1.6 0.00 0.61 0.61 95 1012.9
20260906001544 27 333 1.6 1.6 0.00 0.61 0.61 94 1013.0
20260906001039 27 350 0.0 0.0 0.00 0.61 0.61 94 1013.0
20260906000535 27 350 0.0 0.0 0.00 0.61 0.61 93 1013.0
20260906000030 27 349 0.0 0.0 0.00 0.61 0.61 93 1012.9
20260905235524 27 349 0.0 0.0 0.00 0.61 0.61 93 1012.9
20260905235019 28 350 0.0 1.6 0.00 0.61 0.61 92 1012.9
20260905234514 28 344 1.6 3.2 0.00 0.61 0.61 91 1013.0
20260905234009 28 323 1.6 1.6 0.00 0.61 0.61 91 1012.9
20260905233504 28 351 0.0 0.0 0.00 0.61 0.61 90 1013.0
20260905233003 28 353 0.0 1.6 0.00 0.61 0.61 90 1012.8
20260905232459 28 345 0.0 1.6 0.00 0.61 0.61 89 1012.8
20260905231954 28 342 0.0 1.6 0.00 0.61 0.61 90 1012.8
20260905231450 29 341 0.0 1.6 0.00 0.61 0.61 89 1012.8
20260905230946 29 340 0.0 1.6 0.00 0.61 0.61 88 1012.9
20260905230445 30 328 1.6 1.6 0.00 0.61 0.61 87 1012.8
20260905225943 30 345 0.0 0.0 0.00 0.61 0.61 87 1012.7
20260905225438 30 345 0.0 0.0 0.00 0.61 0.61 87 1012.7
20260905224933 30 339 0.0 0.0 0.00 0.61 0.61 87 1012.7
20260905224429 30 339 0.0 0.0 0.00 0.61 0.61 86 1012.7
20260905223928 30 338 0.0 0.0 0.00 0.61 0.61 86 1012.8
20260905223426 30 337 0.0 0.0 0.00 0.61 0.61 86 1012.7
20260905222921 30 336 0.0 0.0 0.00 0.61 0.61 84 1012.8
20260905222420 30 329 1.6 3.2 0.00 0.61 0.61 82 1013.3
20260905221916 31 319 0.0 3.2 0.00 0.61 0.61 80 1013.2
20260905221413 30 322 0.0 1.6 0.00 0.61 0.61 81 1012.9
20260905220909 30 322 0.0 0.0 0.00 0.61 0.61 81 1013.2
20260905220404 31 321 1.6 1.6 0.00 0.61 0.61 78 1013.1
20260905215903 31 328 0.0 1.6 0.00 0.61 0.61 78 1013.3
20260905215359 31 312 1.6 3.2 0.00 0.61 0.61 76 1013.3
20260905214855 31 303 1.6 3.2 0.00 0.61 0.61 79 1013.3
20260905214351 31 282 3.2 4.8 0.00 0.61 0.61 79 1013.1
20260905213845 31 308 3.2 3.2 0.00 0.61 0.61 79 1013.2
20260905213342 31 327 1.6 1.6 0.00 0.61 0.61 79 1013.4
20260905212842 31 251 1.6 3.2 0.00 0.61 0.61 78 1013.4
20260905212336 31 326 0.0 3.2 0.00 0.61 0.61 75 1013.3
20260905211836 31 327 0.0 1.6 0.00 0.61 0.61 78 1013.3
20260905211332 31 282 1.6 3.2 0.00 0.61 0.61 79 1013.5
20260905210828 31 95 1.6 3.2 0.00 0.61 0.61 74 1013.6
20260905210328 30 344 1.6 4.8 0.00 0.61 0.61 80 1013.6
20260905205827 28 344 0.0 1.6 0.00 0.61 0.61 87 1013.4
20260905205321 28 33 1.6 3.2 0.00 0.61 0.61 88 1013.3
20260905204821 28 273 1.6 1.6 0.00 0.61 0.61 89 1013.3
20260905204317 28 299 0.0 3.2 0.00 0.61 0.61 90 1013.5
20260905203815 27 332 1.6 3.2 0.00 0.61 0.61 94 1013.6
20260905203311 27 300 1.6 3.2 0.00 0.61 0.61 98 1013.4
20260905202801 27 175 4.8 4.8 0.00 0.61 0.61 99 1013.4
20260905202256 26 338 0.0 1.6 0.00 0.61 0.61 99 1013.6
20260905201752 26 277 4.8 8.0 0.00 0.61 0.61 99 1013.4
20260905201247 26 272 4.8 4.8 0.13 0.61 0.61 99 1013.7
20260905200742 26 330 1.6 1.6 0.43 0.61 0.61 99 1013.9
20260905200238 26 337 1.6 3.2 1.07 0.61 0.61 99 1014.0
20260905195735 26 336 1.6 1.6 2.34 0.51 0.51 98 1014.1
20260905195230 26 353 0.0 4.8 2.34 0.43 0.43 97 1014.2
20260905194726 26 273 4.8 4.8 0.79 0.13 0.13 95 1014.3
20260905194225 26 346 0.0 1.6 0.18 0.03 0.03 93 1014.0
20260905193725 27 10 0.0 3.2 0.00 0.00 0.00 91 1014.4
20260905193220 27 76 4.8 9.7 0.00 0.00 0.00 89 1014.2
20260905192716 27 95 8.0 11.3 0.00 0.00 0.00 91 1014.5
20260905192212 28 65 8.0 12.9 0.00 0.00 0.00 88 1014.5
20260905191711 28 23 3.2 4.8 0.00 0.00 0.00 87 1014.4
20260905191209 30 13 8.0 11.3 0.00 0.00 0.00 80 1014.3
20260905190708 32 28 1.6 9.7 0.00 0.00 0.00 77 1014.1
20260905190207 32 0 4.8 9.7 0.00 0.00 0.00 78 1014.1
20260905185706 32 349 3.2 11.3 0.00 0.00 0.00 75 1014.4
20260905185201 32 329 3.2 4.8 0.00 0.00 0.00 75 1014.3
20260905184700 32 285 3.2 3.2 0.00 0.00 0.00 75 1014.3
20260905184159 32 215 6.4 11.3 0.00 0.00 0.00 75 1014.6
20260905183654 31 181 4.8 4.8 0.00 0.00 0.00 76 1014.6
20260905183149 32 245 0.0 4.8 0.00 0.00 0.00 80 1014.7
20260905182648 31 277 3.2 4.8 0.00 0.00 0.00 79 1014.8
20260905182143 31 302 3.2 8.0 0.00 0.00 0.00 82 1014.8
20260905181638 30 48 1.6 3.2 0.00 0.00 0.00 84 1014.8
20260905181137 30 271 6.4 9.7 0.00 0.00 0.00 82 1015.0
20260905180632 32 268 8.0 9.7 0.00 0.00 0.00 77 1014.8
20260905180127 32 340 0.0 1.6 0.00 0.00 0.00 69 1015.0
20260905175626 33 340 1.6 1.6 0.00 0.00 0.00 69 1014.9
20260905175122 33 354 0.0 1.6 0.00 0.00 0.00 71 1015.0
20260905174617 32 156 3.2 3.2 0.00 0.00 0.00 73 1014.9
20260905174113 31 95 3.2 3.2 0.00 0.00 0.00 79 1015.1
20260905173609 31 345 0.0 0.0 0.00 0.00 0.00 79 1014.9
20260905173104 31 3 0.0 0.0 0.00 0.00 0.00 80 1014.9
20260905172603 30 2 0.0 1.6 0.00 0.00 0.00 79 1015.1
20260905172058 30 348 1.6 3.2 0.00 0.00 0.00 82 1015.3
20260905171555 30 347 0.0 1.6 0.00 0.00 0.00 82 1015.1
20260905171050 30 330 1.6 3.2 0.00 0.00 0.00 81 1015.5
20260905170547 30 341 3.2 4.8 0.00 0.00 0.00 82 1015.2
20260905170042 31 339 1.6 3.2 0.00 0.00 0.00 81 1015.2
20260905165537 32 339 3.2 4.8 0.00 0.00 0.00 77 1015.3
20260905165032 32 335 3.2 4.8 0.00 0.00 0.00 76 1015.2
20260905164526 32 348 0.0 3.2 0.00 0.00 0.00 73 1015.4
20260905164021 32 302 3.2 4.8 0.00 0.00 0.00 72 1015.3
20260905163517 32 358 1.6 3.2 0.00 0.00 0.00 71 1015.4
20260905163013 32 302 3.2 3.2 0.00 0.00 0.00 72 1015.4
20260905162508 32 359 1.6 4.8 0.00 0.00 0.00 77 1015.4
20260905162003 32 1 1.6 3.2 0.00 0.00 0.00 75 1015.5
20260905161502 31 345 1.6 4.8 0.00 0.00 0.00 74 1015.4
20260905161000 31 349 3.2 8.0 0.00 0.00 0.00 76 1015.5
20260905160459 31 345 3.2 3.2 0.00 0.00 0.00 75 1015.9
20260905155954 31 337 1.6 4.8 0.00 0.00 0.00 77 1015.6
20260905155449 30 334 1.6 4.8 0.00 0.00 0.00 83 1015.5
20260905154947 30 327 1.6 3.2 0.00 0.00 0.00 83 1015.8
20260905154443 30 341 0.0 1.6 0.00 0.00 0.00 84 1015.5
20260905153938 30 317 1.6 3.2 0.00 0.00 0.00 81 1015.6
20260905153434 31 334 0.0 3.2 0.00 0.00 0.00 80 1015.6
20260905152934 31 298 1.6 3.2 0.00 0.00 0.00 78 1015.5
20260905152434 31 304 3.2 3.2 0.00 0.00 0.00 76 1015.7
20260905151928 31 81 3.2 4.8 0.00 0.00 0.00 76 1015.5
20260905151424 30 21 3.2 3.2 0.00 0.00 0.00 80 1015.6
20260905150919 30 336 1.6 1.6 0.00 0.00 0.00 85 1015.6
20260905150419 30 307 3.2 3.2 0.00 0.00 0.00 83 1015.4
20260905145915 31 7 0.0 3.2 0.00 0.00 0.00 83 1015.3
20260905145410 31 354 0.0 0.0 0.00 0.00 0.00 82 1015.4
20260905144910 30 25 0.0 1.6 0.00 0.00 0.00 86 1015.4
20260905144405 29 346 0.0 1.6 0.00 0.00 0.00 88 1015.4
20260905143904 29 349 0.0 0.0 0.00 0.00 0.00 90 1015.6
20260905143358 29 347 0.0 0.0 0.00 0.00 0.00 88 1015.5
20260905142858 29 349 0.0 0.0 0.00 0.00 0.00 89 1015.8
20260905142356 29 349 0.0 1.6 0.00 0.00 0.00 90 1015.7
20260905141852 29 336 4.8 4.8 0.00 0.00 0.00 89 1015.4
20260905141347 30 12 0.0 1.6 0.00 0.00 0.00 87 1015.7
20260905140844 30 316 1.6 1.6 0.00 0.00 0.00 86 1015.6
20260905140343 30 308 0.0 3.2 0.00 0.00 0.00 84 1015.5
20260905135842 30 346 0.0 1.6 0.00 0.00 0.00 84 1015.5
20260905135338 30 357 1.6 1.6 0.00 0.00 0.00 88 1015.3
20260905134833 29 18 0.0 1.6 0.00 0.00 0.00 90 1015.5
20260905134326 29 17 0.0 1.6 0.00 0.00 0.00 89 1015.2
20260905133826 29 68 1.6 4.8 0.00 0.00 0.00 91 1015.2
20260905133322 28 68 3.2 3.2 0.00 0.00 0.00 92 1015.6
20260905132821 28 72 3.2 3.2 0.00 0.00 0.00 93 1015.3
20260905132317 28 42 1.6 3.2 0.00 0.00 0.00 94 1015.3
20260905131811 27 64 1.6 3.2 0.00 0.00 0.00 96 1015.4
20260905131307 27 50 3.2 3.2 0.00 0.00 0.00 96 1015.2
20260905130801 27 89 3.2 3.2 0.00 0.00 0.00 96 1015.3
20260905130300 27 40 1.6 3.2 0.00 0.00 0.00 97 1015.2
20260905125756 26 55 1.6 3.2 0.00 0.00 0.00 99 1015.3
20260905125250 26 44 1.6 3.2 0.00 0.00 0.00 99 1015.4
20260905124747 26 90 4.8 4.8 0.00 0.00 0.00 99 1015.0
20260905124243 26 64 4.8 8.0 0.00 0.00 0.00 99 1015.3
20260905123738 26 57 3.2 4.8 0.00 0.00 0.00 99 1015.1
20260905123235 25 95 4.8 4.8 0.00 0.00 0.00 99 1015.2
20260905122735 25 60 3.2 3.2 0.00 0.00 0.00 99 1015.2
20260905122228 25 26 0.0 1.6 0.00 0.00 0.00 99 1015.2
20260905121724 25 57 0.0 3.2 0.00 0.00 0.00 99 1014.9
20260905121220 25 54 3.2 3.2 0.00 0.00 0.00 99 1014.9
20260905120719 24 23 0.0 1.6 0.00 0.00 0.00 99 1014.8
20260905120214 24 24 0.0 1.6 0.00 0.00 0.00 99 1014.9
20260905115714 24 24 0.0 0.0 0.00 0.00 0.00 99 1014.8
20260905115209 24 24 1.6 1.6 0.00 0.00 0.00 99 1014.8
20260905114708 24 30 1.6 1.6 0.00 0.00 0.00 99 1014.8
20260905114206 23 30 1.6 1.6 0.00 0.00 0.00 99 1014.7
20260905113701 23 34 1.6 1.6 0.00 0.00 0.00 99 1014.6
20260905113157 23 34 1.6 1.6 0.00 0.00 0.00 99 1014.5
20260905112656 23 32 1.6 3.2 0.00 0.00 0.00 99 1014.7
20260905112152 23 28 1.6 1.6 0.00 0.00 0.00 99 1014.5
20260905111652 23 27 1.6 1.6 0.00 0.00 0.00 99 1014.4
20260905111151 23 29 1.6 1.6 0.00 0.00 0.00 99 1014.5
20260905110650 23 6 0.0 1.6 0.00 0.00 0.00 99 1014.6
20260905110146 23 357 0.0 0.0 0.00 0.00 0.00 99 1014.4
20260905105641 23 356 0.0 1.6 0.00 0.00 0.00 99 1014.4
20260905105140 23 358 0.0 0.0 0.00 0.00 0.00 99 1014.5
20260905104635 23 3 0.0 0.0 0.00 0.00 0.00 99 1014.4
20260905104130 23 3 0.0 0.0 0.00 0.00 0.00 99 1014.5
20260905103626 23 3 0.0 0.0 0.00 0.00 0.00 99 1014.4
20260905103121 23 4 0.0 1.6 0.00 0.00 0.00 99 1014.4
20260905102617 23 29 1.6 1.6 0.00 0.00 0.00 99 1014.5
20260905102114 23 52 1.6 3.2 0.00 0.00 0.00 99 1014.5
20260905101612 23 10 0.0 1.6 0.00 0.00 0.00 99 1014.4
20260905101110 23 358 0.0 0.0 0.00 0.00 0.00 99 1014.3
20260905100607 23 353 1.6 1.6 0.00 0.00 0.00 99 1014.3
20260905100101 23 356 1.6 1.6 0.00 0.00 0.00 99 1014.5
20260905095555 23 357 0.0 0.0 0.00 0.00 0.00 99 1014.3
20260905095051 23 357 0.0 0.0 0.00 0.00 0.00 99 1014.4
20260905094545 23 357 0.0 0.0 0.00 0.00 0.00 99 1014.4
20260905094045 23 357 0.0 0.0 0.00 0.00 0.00 99 1014.4
20260905093539 23 357 0.0 0.0 0.00 0.00 0.00 99 1014.4
20260905093036 23 356 0.0 0.0 0.00 0.00 0.00 99 1014.3
20260905092535 23 356 1.6 1.6 0.00 0.00 0.00 99 1014.5
20260905092032 24 3 0.0 1.6 0.00 0.00 0.00 99 1014.2
20260905091530 24 17 0.0 1.6 0.00 0.00 0.00 99 1014.2
20260905091025 24 20 1.6 1.6 0.00 0.00 0.00 99 1014.4
20260905090525 24 20 1.6 1.6 0.00 0.00 0.00 99 1014.3
20260905090020 24 20 1.6 1.6 0.00 0.00 0.00 99 1014.1
20260905085519 24 26 1.6 1.6 0.00 0.00 0.00 99 1014.4
20260905085015 24 17 1.6 1.6 0.00 0.00 0.00 99 1014.4
20260905084514 24 1 0.0 0.0 0.00 0.00 0.00 99 1014.3
20260905084009 24 1 0.0 0.0 0.00 0.00 0.00 99 1014.1
20260905083504 24 4 0.0 1.6 0.00 0.00 0.00 99 1014.1
20260905083001 23 11 1.6 1.6 0.00 0.00 0.00 99 1014.2
20260905082456 23 3 0.0 0.0 0.00 0.00 0.00 99 1014.2
20260905081951 23 23 0.0 1.6 0.00 0.00 0.00 99 1014.2
20260905081446 23 29 1.6 1.6 0.00 0.00 0.00 99 1014.1
20260905080945 23 26 0.0 1.6 0.00 0.00 0.00 99 1014.3
20260905080440 23 4 0.0 1.6 0.00 0.00 0.00 99 1014.1
20260905075938 23 26 1.6 1.6 0.00 0.00 0.00 99 1014.2
20260905075433 23 358 0.0 0.0 0.00 0.00 0.00 99 1014.2
20260905074932 24 354 0.0 1.6 0.00 0.00 0.00 99 1014.2
20260905074428 24 352 0.0 0.0 0.00 0.00 0.00 99 1014.4
20260905073924 24 357 0.0 3.2 0.00 0.00 0.00 99 1014.4
20260905073418 23 3 0.0 0.0 0.00 0.00 0.00 99 1014.3
20260905072914 23 11 0.0 1.6 0.00 0.00 0.00 99 1014.3
20260905072409 24 37 1.6 3.2 0.00 0.00 0.00 99 1014.3
20260905071905 24 25 1.6 3.2 0.00 0.00 0.00 99 1014.1
20260905071402 23 2 0.0 1.6 0.00 0.00 0.00 99 1014.0
20260905070901 23 6 0.0 1.6 0.00 0.00 0.00 99 1014.2
20260905070357 24 3 0.0 1.6 0.00 0.00 0.00 99 1014.3
20260905065857 23 6 0.0 0.0 0.00 0.00 0.00 99 1014.2
20260905065355 23 357 0.0 0.0 0.00 0.00 0.00 99 1014.0
20260905064850 23 0 0.0 0.0 0.00 0.00 0.00 99 1014.0
20260905064346 23 355 0.0 0.0 0.00 0.00 0.00 99 1014.1
20260905063844 23 358 0.0 0.0 0.00 0.00 0.00 99 1013.9
20260905063340 23 358 0.0 0.0 0.00 0.00 0.00 99 1013.9
20260905062836 23 1 0.0 1.6 0.00 0.00 0.00 99 1013.8
20260905062330 23 1 0.0 0.0 0.00 0.00 0.00 99 1014.0
20260905061825 23 1 0.0 0.0 0.00 0.00 0.00 99 1014.1
20260905061320 24 1 0.0 0.0 0.00 0.00 0.00 99 1014.2
20260905060814 23 20 1.6 1.6 0.00 0.00 0.00 99 1014.2
20260905060311 24 18 0.0 1.6 0.00 0.00 0.00 99 1014.2
20260905055809 23 27 1.6 1.6 0.00 0.00 0.00 99 1014.2
20260905055306 23 9 0.0 0.0 0.00 0.00 0.00 99 1014.1
20260905054759 23 6 0.0 1.6 0.00 0.00 0.00 99 1014.4
20260905054256 23 22 1.6 3.2 0.00 0.00 0.00 99 1014.1
20260905053755 23 13 1.6 1.6 0.00 0.00 0.00 99 1014.0
20260905053250 23 1 0.0 0.0 0.00 0.00 0.00 99 1014.3
20260905052749 23 357 0.0 0.0 0.00 0.00 0.00 99 1014.4
20260905052244 24 355 0.0 0.0 0.00 0.00 0.00 99 1014.5
20260905051744 24 2 0.0 0.0 0.00 0.00 0.00 99 1014.5
20260905051241 24 1 0.0 0.0 0.00 0.00 0.00 99 1014.5
20260905050737 24 358 0.0 0.0 0.00 0.00 0.00 99 1014.6
20260905050234 24 354 0.0 0.0 0.00 0.00 0.00 99 1014.7
20260905045733 24 353 0.0 0.0 0.00 0.33 0.33 99 1014.7
20260905045229 24 351 0.0 0.0 0.00 0.33 0.33 99 1014.8
20260905044724 24 351 0.0 1.6 0.00 0.33 0.33 99 1014.8
20260905044219 24 341 1.6 1.6 0.00 0.33 0.33 99 1014.8
20260905043718 24 347 0.0 0.0 0.00 0.33 0.33 99 1015.0
20260905043213 24 352 0.0 0.0 0.00 0.33 0.33 99 1014.8
20260905042713 24 358 0.0 0.0 0.00 0.33 0.33 99 1015.2
20260905042212 24 1 0.0 0.0 0.00 0.33 0.33 99 1015.0
20260905041708 24 4 0.0 1.6 0.00 0.33 0.33 99 1015.0
20260905041203 24 5 0.0 0.0 0.00 0.33 0.33 99 1015.1
20260905040658 24 14 1.6 1.6 0.00 0.33 0.33 99 1015.2
20260905040156 24 358 0.0 0.0 0.00 0.33 0.33 99 1015.1
20260905035651 24 355 0.0 1.6 0.00 0.33 0.33 99 1015.3
20260905035148 24 359 0.0 0.0 0.00 0.33 0.33 99 1015.2
20260905034644 24 358 0.0 1.6 0.00 0.33 0.33 99 1015.4
20260905034143 24 357 0.0 0.0 0.00 0.33 0.33 99 1015.5
20260905033642 24 357 0.0 0.0 0.00 0.33 0.33 99 1015.3
20260905033138 25 356 0.0 1.6 0.00 0.33 0.33 99 1015.5
20260905032637 25 357 0.0 0.0 0.00 0.33 0.33 99 1015.4
20260905032132 25 354 0.0 0.0 0.00 0.33 0.33 99 1015.5
20260905031628 25 354 0.0 0.0 0.00 0.33 0.33 99 1015.6
20260905031123 25 356 0.0 0.0 0.00 0.33 0.33 99 1015.4
20260905030618 25 3 0.0 1.6 0.00 0.33 0.33 99 1015.4
20260905030113 25 2 0.0 1.6 0.00 0.33 0.33 99 1015.5
20260905025608 25 4 0.0 1.6 0.00 0.33 0.33 99 1015.4
20260905025104 25 4 0.0 1.6 0.00 0.33 0.33 99 1015.5
20260905024559 25 6 0.0 1.6 0.00 0.33 0.33 99 1015.5
20260905024054 25 65 3.2 4.8 0.00 0.33 0.33 99 1015.5
20260905023549 25 88 3.2 4.8 0.00 0.33 0.33 99 1015.6
20260905023044 25 70 3.2 3.2 0.00 0.33 0.33 99 1015.4
20260905022543 25 19 0.0 1.6 0.00 0.33 0.33 99 1015.4
20260905022039 25 5 1.6 3.2 0.00 0.33 0.33 99 1015.4
20260905021538 25 355 0.0 0.0 0.00 0.33 0.33 99 1015.3
20260905021034 25 344 1.6 1.6 0.00 0.33 0.33 99 1015.5
20260905020533 25 357 0.0 1.6 0.00 0.33 0.33 99 1015.4
20260905020029 25 7 1.6 1.6 0.00 0.33 0.33 99 1015.0
20260905015527 25 356 0.0 0.0 0.00 0.33 0.33 99 1015.2
20260905015022 25 352 0.0 1.6 0.00 0.33 0.33 99 1015.2
20260905014516 25 351 0.0 0.0 0.00 0.33 0.33 99 1015.0
20260905014012 25 352 0.0 1.6 0.00 0.33 0.33 99 1014.8
20260905013508 25 353 0.0 1.6 0.00 0.33 0.33 99 1015.1
20260905013003 25 353 1.6 3.2 0.00 0.33 0.33 99 1015.2
20260905012458 25 351 0.0 1.6 0.00 0.33 0.33 99 1015.1